#timestamp,LO_Frequency,Hit,StdDev 
1670050815.5,286047000.6,N
1670050835.3,286047002.1,N
1670050855.1,286047002.8,N
1670050875.9,286047001.6,N
1670050895.7,286047002.7,N
1670050915.6,286046998.1,N
1670050935.4,286047000.2,N
1670050955.2,286047002.4,N
1670050975.1,286047002.0,N
1670050976.0,286047002.0,N
1670050995.8,286047001.9,N
1670051015.7,286047000.1,N
1670051035.5,286046998.6,N
1670051055.3,286047001.1,N
1670051075.2,286047000.0,N
1670051095.0,286047000.7,N
1670051095.9,286047000.7,N
1670051115.8,286047000.0,N
1670051135.6,286047002.4,N
1670051155.4,286047000.2,N
1670051175.3,286047000.0,N
1670051195.1,286047000.2,N
1670051215.9,286047000.6,N
1670051235.7,286047000.6,N
1670051255.5,286047000.0,N
1670051275.4,286047000.3,N
1670051295.2,286046999.6,N
1670051315.0,286046998.3,N
1670051315.9,286046998.3,N
1670051335.8,286046998.3,N
1670051355.6,286046998.3,N
1670051375.5,286046998.3,N
1670051395.3,286047000.7,N
1670051415.1,286047000.2,N
1670051435.9,286047000.9,N
1670051455.7,286047001.0,N
1670051475.5,286047001.2,N
1670051495.4,286047000.7,N
1670051515.2,286047002.3,N
1670051535.1,286047002.1,N
1670051536.0,286047002.1,N
1670051555.8,286047004.3,Y
1670051575.6,286047002.5,P
1670051595.5,286047002.6,N
1670051615.3,286047001.8,N
1670051635.2,286046999.8,N
1670051655.9,286047002.0,N
1670051675.7,286047004.1,Y
1670051695.6,286047000.0,P
1670051715.4,286047000.1,N
1670051735.2,286047002.4,P
1670051755.1,286046999.7,N
1670051756.0,286046999.7,N
1670051775.8,286047002.8,N
1670051795.7,286047000.4,N
1670051815.5,286047001.0,N
1670051835.3,286047001.0,N
1670051855.2,286047000.1,N
1670051875.0,286047002.4,N
1670051906.0,286047002.4,E
1670051915.9,286047002.8,N
1670051935.7,286046998.3,P
1670051955.6,286046996.8,N
1670051975.4,286046997.1,N
1670051995.2,286046999.6,N
1670052015.1,286047001.2,N
1670052016.0,286047001.2,N
1670052035.8,286046999.9,N
1670052055.6,286046998.6,N
1670052075.5,286046999.1,N
1670052095.3,286046998.9,N
1670052115.2,286046999.0,N
1670052135.9,286046999.2,N
1670052155.7,286046998.2,N
1670052175.6,286046998.9,N
1670052195.4,286046997.5,N
1670052215.2,286046999.6,N
1670052235.1,286046996.6,N
1670052236.0,286046996.6,N
1670052255.8,286046997.1,N
1670052275.7,286046997.0,N
1670052295.5,286046998.0,N
1670052315.3,286046994.9,Y
1670052335.2,286046999.3,P
1670052355.0,286046997.0,P
1670052355.9,286046997.0,P
1670052375.8,286046995.0,Y
1670052395.6,286046998.5,P
1670052415.4,286047000.3,N
1670052435.3,286047001.1,N
1670052455.1,286046999.2,N
1670052475.8,286046999.2,N
1670052495.7,286047000.0,N
1670052515.5,286047003.7,Y
1670052535.4,286047002.8,P
1670052555.2,286046999.8,N
1670052575.0,286047002.5,N
1670052575.9,286047002.5,N
1670052595.8,286047002.7,N
1670052615.6,286047002.6,N
1670052635.4,286047001.9,N
1670052655.3,286047001.6,N
1670052675.1,286047000.2,N
1670052695.9,286047002.6,N
1670052715.7,286046999.8,N
1670052735.5,286047002.4,N
1670052755.4,286047000.0,N
1670052775.2,286047001.2,N
1670052795.0,286047000.2,N
1670052795.9,286047000.2,N
1670052815.8,286047000.5,N
1670052835.6,286047002.4,N
1670052855.5,286047000.2,N
1670052875.3,286047000.7,N
1670052895.1,286046998.5,N
1670052915.9,286046998.3,N
1670052935.7,286047000.1,N
1670052955.5,286047001.0,N
1670052975.4,286047001.2,N
1670052995.2,286047000.6,N
1670053015.0,286047002.8,N
1670053016.0,286047002.8,N
1670053035.8,286047000.8,N
1670053055.6,286046999.9,N
1670053075.5,286047000.8,N
1670053095.3,286047002.3,N
1670053115.2,286047002.3,N
1670053135.9,286047002.1,N
1670053155.7,286047002.7,N
1670053175.6,286047000.4,N
1670053195.4,286047000.6,N
1670053215.2,286047000.6,N
1670053235.1,286047000.7,N
1670053236.0,286047000.7,N
1670053255.8,286047000.0,N
1670053275.7,286047000.2,N
1670053295.5,286047002.4,N
1670053315.3,286047002.8,N
1670053335.2,286047001.1,N
1670053355.0,286047000.5,N
1670053355.9,286047000.5,N
1670053375.8,286047002.8,N
1670053395.6,286047000.1,N
1670053415.4,286047000.7,N
1670053435.3,286047000.2,N
1670053455.1,286047000.1,N
1670053475.9,286047000.2,N
1670053495.7,286047002.1,N
1670053515.5,286047002.4,N
1670053535.4,286047002.2,N
1670053555.2,286047002.8,N
1670053575.0,286047000.4,N
1670053575.9,286047000.4,N
1670053595.8,286047000.7,N
1670053615.6,286047000.6,N
1670053635.5,286046998.2,N
1670053655.3,286047000.9,N
1670053675.1,286047000.4,N
1670053695.9,286047000.9,N
1670053715.7,286046998.2,N
1670053735.5,286046999.0,N
1670053755.4,286046999.6,N
1670053775.2,286046998.9,N
1670053795.1,286046999.6,N
1670053796.0,286046999.6,N
1670053815.8,286046996.6,N
1670053835.6,286046997.5,N
1670053855.5,286046996.5,N
1670053875.3,286046999.3,N
1670053895.1,286046996.7,N
1670053915.9,286046997.0,N
1670053935.7,286046997.8,N
1670053955.6,286046997.4,N
1670053975.4,286046997.7,N
1670053995.2,286046995.0,N
1670054015.1,286046995.2,N
1670054016.0,286046995.2,N
1670054035.8,286046996.4,N
1670054055.6,286046993.7,N
1670054075.5,286046995.5,N
1670054095.9,286046995.5,N
1670054115.7,286046996.0,N
1670054135.5,286046995.7,N
1670054155.4,286046996.4,N
1670054175.2,286046995.1,N
1670054195.0,286046995.9,N
1670054195.9,286046995.9,N
1670054215.8,286046993.7,Y
1670054235.6,286046998.4,P
1670054255.5,286046999.2,N
1670054275.3,286046999.2,N
1670054295.1,286046999.6,N
1670054315.9,286046997.7,N
1670054335.7,286046996.7,Y
1670054355.6,286046999.2,P
1670054375.4,286046999.6,N
1670054395.2,286046999.0,N
